Time,TemperatureF,DewpointF,PressureIn,WindDirection,WindDirectionDegrees,WindSpeedMPH,WindSpeedGustMPH,Humidity,HourlyPrecipIn,Conditions,Clouds,dailyrainin,SoftwareType,DateUTC
2013-07-13 00:12:00,75.0,74.0,29.93,SE,126,0.0,0.0,96,0.00,,,0.05,,2013-07-13 04:12:00,
2013-07-13 00:22:00,75.0,74.0,29.93,SE,126,0.0,0.0,96,0.00,,,0.05,,2013-07-13 04:22:00,
2013-07-13 00:32:00,75.0,74.0,29.93,SE,126,0.0,0.0,97,0.00,,,0.05,,2013-07-13 04:32:00,
2013-07-13 00:43:00,75.0,74.0,29.93,SE,126,0.0,0.0,97,0.00,,,0.05,,2013-07-13 04:43:00,
2013-07-13 00:52:00,75.0,74.0,29.93,SE,126,0.0,0.0,97,0.00,,,0.05,,2013-07-13 04:52:00,
2013-07-13 01:01:00,75.0,74.0,29.93,SE,126,0.0,0.0,97,0.00,,,0.05,,2013-07-13 05:01:00,
2013-07-13 01:11:00,75.0,74.0,29.93,SE,126,0.0,0.0,97,0.00,,,0.05,,2013-07-13 05:11:00,
2013-07-13 01:22:00,75.0,74.0,29.92,ESE,120,0.0,1.0,97,0.00,,,0.05,,2013-07-13 05:22:00,
2013-07-13 01:42:00,75.0,74.0,29.91,ESE,120,0.0,0.0,96,0.00,,,0.05,,2013-07-13 05:42:00,
2013-07-13 01:52:00,75.0,74.0,29.91,ESE,120,0.0,0.0,96,0.00,,,0.05,,2013-07-13 05:52:00,
2013-07-13 02:22:00,75.0,74.0,29.91,ESE,120,0.0,0.0,96,0.00,,,0.05,,2013-07-13 06:22:00,
2013-07-13 02:32:00,75.0,74.0,29.90,ESE,120,0.0,0.0,96,0.00,,,0.05,,2013-07-13 06:32:00,
2013-07-13 02:52:00,75.0,74.0,29.90,ESE,120,0.0,0.0,96,0.00,,,0.05,,2013-07-13 06:52:00,
2013-07-13 03:02:00,75.0,74.0,29.90,ESE,120,0.0,0.0,96,0.00,,,0.05,,2013-07-13 07:02:00,
2013-07-13 03:11:00,74.0,73.0,29.90,ESE,120,0.0,0.0,96,0.00,,,0.05,,2013-07-13 07:11:00,
2013-07-13 03:22:00,74.0,73.0,29.90,ESE,120,0.0,0.0,96,0.00,,,0.05,,2013-07-13 07:22:00,
2013-07-13 03:33:00,74.0,73.0,29.90,ESE,120,0.0,1.0,97,0.00,,,0.05,,2013-07-13 07:33:00,
2013-07-13 03:44:00,74.0,73.0,29.90,ESE,121,0.0,1.0,97,0.00,,,0.05,,2013-07-13 07:44:00,
2013-07-13 03:53:00,74.0,73.0,29.90,ESE,121,0.0,1.0,97,0.00,,,0.05,,2013-07-13 07:53:00,
2013-07-13 04:02:00,75.0,74.0,29.90,SE,126,0.0,2.0,97,0.00,,,0.05,,2013-07-13 08:02:00,
2013-07-13 04:22:00,75.0,74.0,29.90,South,178,0.0,1.0,97,0.00,,,0.05,,2013-07-13 08:22:00,
2013-07-13 04:33:00,74.0,73.0,29.91,WSW,253,0.0,2.0,97,0.00,,,0.05,,2013-07-13 08:33:00,
2013-07-13 04:43:00,74.0,72.0,29.90,SSW,200,0.0,2.0,95,0.00,,,0.05,,2013-07-13 08:43:00,
2013-07-13 04:52:00,74.0,72.0,29.90,SSW,200,0.0,2.0,95,0.00,,,0.05,,2013-07-13 08:52:00,
2013-07-13 05:02:00,74.0,72.0,29.90,SSW,192,0.0,1.0,95,0.00,,,0.05,,2013-07-13 09:02:00,
2013-07-13 05:22:00,74.0,72.0,29.90,SSW,192,0.0,0.0,95,0.00,,,0.05,,2013-07-13 09:22:00,
2013-07-13 05:33:00,74.0,72.0,29.90,SSW,192,0.0,0.0,95,0.01,,,0.06,,2013-07-13 09:33:00,
2013-07-13 05:43:00,74.0,73.0,29.91,SSW,192,0.0,0.0,96,0.02,,,0.07,,2013-07-13 09:43:00,
2013-07-13 05:53:00,74.0,73.0,29.91,SSW,192,0.0,0.0,96,0.02,,,0.07,,2013-07-13 09:53:00,
2013-07-13 06:01:00,74.0,73.0,29.91,SSW,192,0.0,0.0,96,0.02,,,0.07,,2013-07-13 10:01:00,
2013-07-13 06:11:00,74.0,73.0,29.91,SSW,192,0.0,0.0,96,0.02,,,0.07,,2013-07-13 10:11:00,
2013-07-13 06:22:00,74.0,73.0,29.91,SSW,192,0.0,0.0,96,0.02,,,0.07,,2013-07-13 10:22:00,
2013-07-13 06:32:00,74.0,73.0,29.91,SSW,192,0.0,0.0,96,0.01,,,0.07,,2013-07-13 10:32:00,
2013-07-13 06:52:00,74.0,73.0,29.90,SSW,192,0.0,0.0,97,0.00,,,0.07,,2013-07-13 10:52:00,
2013-07-13 07:02:00,73.0,72.0,29.90,SSW,192,0.0,0.0,97,0.00,,,0.07,,2013-07-13 11:02:00,
2013-07-13 07:22:00,74.0,73.0,29.90,SSE,148,0.0,1.0,98,0.00,,,0.07,,2013-07-13 11:22:00,
2013-07-13 07:32:00,74.0,73.0,29.90,SSE,148,0.0,1.0,98,0.00,,,0.07,,2013-07-13 11:32:00,
2013-07-13 07:42:00,74.0,73.0,29.90,SSE,148,0.0,1.0,98,0.00,,,0.07,,2013-07-13 11:42:00,
2013-07-13 07:52:00,75.0,74.0,29.89,SSE,148,0.0,1.0,97,0.00,,,0.07,,2013-07-13 11:52:00,
2013-07-13 08:22:00,76.0,75.0,29.90,ESE,122,0.0,5.0,96,0.00,,,0.07,,2013-07-13 12:22:00,
2013-07-13 08:32:00,77.0,76.0,29.90,ESE,113,1.0,3.0,96,0.00,,,0.07,,2013-07-13 12:32:00,
2013-07-13 08:43:00,77.0,76.0,29.91,ESE,111,0.0,2.0,96,0.00,,,0.07,,2013-07-13 12:43:00,
2013-07-13 08:52:00,77.0,76.0,29.91,ESE,111,0.0,2.0,96,0.00,,,0.07,,2013-07-13 12:52:00,
2013-07-13 09:01:00,77.0,76.0,29.91,ESE,111,0.0,2.0,96,0.00,,,0.07,,2013-07-13 13:01:00,
2013-07-13 09:12:00,78.0,76.0,29.92,ESE,114,1.0,3.0,93,0.00,,,0.07,,2013-07-13 13:12:00,
2013-07-13 09:22:00,79.0,77.0,29.93,South,180,0.0,1.0,93,0.00,,,0.07,,2013-07-13 13:22:00,
2013-07-13 09:43:00,81.0,76.0,29.93,ESE,105,2.0,6.0,86,0.00,,,0.07,,2013-07-13 13:43:00,
2013-07-13 09:53:00,81.0,76.0,29.93,ESE,105,2.0,6.0,86,0.00,,,0.07,,2013-07-13 13:53:00,
2013-07-13 10:11:00,81.0,76.0,29.94,East,93,1.0,6.0,86,0.00,,,0.07,,2013-07-13 14:11:00,
2013-07-13 10:22:00,82.0,77.0,29.95,WSW,242,0.0,4.0,84,0.00,,,0.07,,2013-07-13 14:22:00,
2013-07-13 10:32:00,83.0,77.0,29.94,East,101,2.0,5.0,82,0.00,,,0.07,,2013-07-13 14:32:00,
2013-07-13 10:53:00,84.0,76.0,29.94,East,94,3.0,6.0,78,0.00,,,0.07,,2013-07-13 14:53:00,
2013-07-13 11:02:00,85.0,77.0,29.94,ESE,120,1.0,4.0,77,0.00,,,0.07,,2013-07-13 15:02:00,
2013-07-13 11:12:00,85.0,77.0,29.94,ESE,120,1.0,4.0,77,0.00,,,0.07,,2013-07-13 15:12:00,
2013-07-13 11:22:00,83.0,75.0,29.94,SE,146,0.0,4.0,78,0.00,,,0.07,,2013-07-13 15:22:00,
2013-07-13 11:33:00,83.0,76.0,29.94,East,83,2.0,5.0,80,0.00,,,0.07,,2013-07-13 15:33:00,
2013-07-13 11:43:00,81.0,74.0,29.95,SW,235,1.0,6.0,79,0.03,,,0.10,,2013-07-13 15:43:00,
2013-07-13 11:53:00,81.0,74.0,29.95,SW,235,1.0,6.0,79,0.03,,,0.10,,2013-07-13 15:53:00,
2013-07-13 12:02:00,76.0,74.0,29.95,ENE,66,0.0,3.0,95,0.28,,,0.35,,2013-07-13 16:02:00,
2013-07-13 12:22:00,75.0,74.0,29.95,ENE,78,0.0,3.0,96,0.28,,,0.35,,2013-07-13 16:22:00,
2013-07-13 13:33:00,74.0,73.0,29.96,NE,46,0.0,6.0,96,0.17,,,0.52,,2013-07-13 17:33:00,
2013-07-13 13:43:00,74.0,73.0,29.96,NE,46,0.0,6.0,96,0.17,,,0.52,,2013-07-13 17:43:00,
2013-07-13 13:52:00,74.0,73.0,29.95,East,97,0.0,2.0,97,0.21,,,0.56,,2013-07-13 17:52:00,
2013-07-13 14:01:00,75.0,74.0,29.93,East,97,0.0,1.0,97,0.10,,,0.56,,2013-07-13 18:01:00,
2013-07-13 14:11:00,75.0,74.0,29.93,East,97,0.0,1.0,97,0.10,,,0.56,,2013-07-13 18:11:00,
2013-07-13 14:22:00,76.0,75.0,29.94,East,98,0.0,0.0,97,0.10,,,0.56,,2013-07-13 18:22:00,
2013-07-13 14:32:00,77.0,76.0,29.94,East,98,0.0,0.0,97,0.05,,,0.56,,2013-07-13 18:32:00,
2013-07-13 14:44:00,77.0,76.0,29.94,East,98,0.0,0.0,97,0.05,,,0.56,,2013-07-13 18:44:00,
2013-07-13 14:53:00,77.0,76.0,29.94,ESE,114,0.0,2.0,96,0.01,,,0.56,,2013-07-13 18:53:00,
2013-07-13 15:02:00,77.0,76.0,29.95,ESE,102,1.0,4.0,96,0.00,,,0.56,,2013-07-13 19:02:00,
2013-07-13 15:11:00,77.0,76.0,29.95,ESE,102,1.0,4.0,96,0.00,,,0.56,,2013-07-13 19:11:00,
2013-07-13 15:22:00,77.0,75.0,29.93,East,96,3.0,9.0,95,0.00,,,0.56,,2013-07-13 19:22:00,
2013-07-13 15:32:00,79.0,77.0,29.94,ESE,109,1.0,8.0,94,0.00,,,0.56,,2013-07-13 19:32:00,
2013-07-13 15:44:00,79.0,77.0,29.94,ESE,109,1.0,8.0,94,0.00,,,0.56,,2013-07-13 19:44:00,
2013-07-13 15:52:00,77.0,74.0,29.94,SW,227,2.0,8.0,92,0.04,,,0.61,,2013-07-13 19:52:00,
2013-07-13 16:01:00,75.0,73.0,29.93,West,273,0.0,4.0,95,0.09,,,0.66,,2013-07-13 20:01:00,
2013-07-13 16:11:00,75.0,73.0,29.93,West,273,0.0,4.0,95,0.09,,,0.66,,2013-07-13 20:11:00,
2013-07-13 16:22:00,75.0,74.0,29.94,West,273,0.0,0.0,97,0.10,,,0.67,,2013-07-13 20:22:00,
2013-07-13 16:33:00,75.0,74.0,29.94,East,90,0.0,2.0,97,0.10,,,0.67,,2013-07-13 20:33:00,
2013-07-13 16:43:00,75.0,74.0,29.94,East,90,0.0,2.0,97,0.10,,,0.67,,2013-07-13 20:43:00,
2013-07-13 16:53:00,77.0,76.0,29.93,ESE,113,0.0,3.0,96,0.06,,,0.67,,2013-07-13 20:53:00,
2013-07-13 17:02:00,77.0,75.0,29.94,ENE,63,0.0,3.0,94,0.01,,,0.67,,2013-07-13 21:02:00,
2013-07-13 17:12:00,77.0,75.0,29.94,ENE,63,0.0,3.0,94,0.01,,,0.67,,2013-07-13 21:12:00,
2013-07-13 17:22:00,78.0,75.0,29.93,NE,53,0.0,2.0,91,0.00,,,0.67,,2013-07-13 21:22:00,
2013-07-13 17:32:00,77.0,75.0,29.94,NE,51,0.0,2.0,93,0.00,,,0.67,,2013-07-13 21:32:00,
2013-07-13 17:43:00,77.0,75.0,29.94,NE,51,0.0,2.0,93,0.00,,,0.67,,2013-07-13 21:43:00,
2013-07-13 17:53:00,77.0,75.0,29.94,ESE,114,0.0,2.0,94,0.00,,,0.67,,2013-07-13 21:53:00,
2013-07-13 18:01:00,76.0,74.0,29.93,East,97,0.0,1.0,94,0.00,,,0.67,,2013-07-13 22:01:00,
2013-07-13 18:12:00,76.0,74.0,29.93,East,97,0.0,1.0,94,0.00,,,0.67,,2013-07-13 22:12:00,
2013-07-13 18:22:00,76.0,74.0,29.93,NE,41,0.0,5.0,94,0.00,,,0.67,,2013-07-13 22:22:00,
2013-07-13 18:32:00,76.0,74.0,29.92,ENE,57,1.0,6.0,94,0.00,,,0.67,,2013-07-13 22:32:00,
2013-07-13 18:43:00,76.0,74.0,29.92,ENE,57,1.0,6.0,94,0.00,,,0.67,,2013-07-13 22:43:00,
2013-07-13 18:53:00,76.0,74.0,29.92,East,86,0.0,4.0,94,0.00,,,0.67,,2013-07-13 22:53:00,
2013-07-13 19:02:00,76.0,74.0,29.93,ENE,77,0.0,3.0,94,0.00,,,0.67,,2013-07-13 23:02:00,
2013-07-13 19:11:00,76.0,74.0,29.93,ENE,77,0.0,3.0,94,0.00,,,0.67,,2013-07-13 23:11:00,
2013-07-13 19:22:00,76.0,74.0,29.92,East,81,0.0,2.0,93,0.00,,,0.67,,2013-07-13 23:22:00,
2013-07-13 19:32:00,76.0,74.0,29.93,ESE,114,0.0,0.0,94,0.00,,,0.67,,2013-07-13 23:32:00,
2013-07-13 19:42:00,76.0,74.0,29.93,ESE,114,0.0,0.0,94,0.00,,,0.67,,2013-07-13 23:42:00,
2013-07-13 19:53:00,76.0,74.0,29.93,ESE,114,0.0,1.0,95,0.00,,,0.67,,2013-07-13 23:53:00,
2013-07-13 20:01:00,76.0,74.0,29.93,ESE,119,0.0,1.0,95,0.00,,,0.67,,2013-07-14 00:01:00,
2013-07-13 20:12:00,76.0,74.0,29.93,ESE,119,0.0,1.0,95,0.00,,,0.67,,2013-07-14 00:12:00,
2013-07-13 20:22:00,76.0,74.0,29.92,ESE,105,0.0,3.0,95,0.00,,,0.67,,2013-07-14 00:22:00,
2013-07-13 20:33:00,76.0,74.0,29.93,East,90,0.0,1.0,95,0.00,,,0.67,,2013-07-14 00:33:00,
2013-07-13 20:42:00,76.0,74.0,29.93,East,90,0.0,1.0,95,0.00,,,0.67,,2013-07-14 00:42:00,
2013-07-13 20:53:00,75.0,74.0,29.93,East,90,0.0,2.0,96,0.00,,,0.67,,2013-07-14 00:53:00,
2013-07-13 21:02:00,75.0,74.0,29.94,East,90,0.0,0.0,96,0.00,,,0.67,,2013-07-14 01:02:00,
2013-07-13 21:11:00,75.0,74.0,29.94,East,90,0.0,0.0,96,0.00,,,0.67,,2013-07-14 01:11:00,
2013-07-13 21:22:00,74.0,73.0,29.94,East,90,0.0,0.0,96,0.00,,,0.67,,2013-07-14 01:22:00,
2013-07-13 21:32:00,74.0,73.0,29.95,East,90,0.0,1.0,97,0.00,,,0.67,,2013-07-14 01:32:00,
2013-07-13 21:43:00,74.0,73.0,29.95,East,90,0.0,1.0,97,0.00,,,0.67,,2013-07-14 01:43:00,
2013-07-13 21:52:00,74.0,73.0,29.95,East,90,0.0,0.0,97,0.00,,,0.67,,2013-07-14 01:52:00,
2013-07-13 22:02:00,74.0,73.0,29.94,East,89,0.0,2.0,98,0.00,,,0.67,,2013-07-14 02:02:00,
2013-07-13 22:11:00,74.0,73.0,29.94,East,89,0.0,2.0,98,0.00,,,0.67,,2013-07-14 02:11:00,
2013-07-13 22:22:00,74.0,73.0,29.95,ESE,111,0.0,1.0,98,0.00,,,0.62,,2013-07-14 02:22:00,
2013-07-13 22:32:00,74.0,73.0,29.96,ESE,111,0.0,2.0,98,0.00,,,0.62,,2013-07-14 02:32:00,
2013-07-13 22:43:00,74.0,73.0,29.96,ESE,111,0.0,2.0,98,0.00,,,0.62,,2013-07-14 02:43:00,
2013-07-13 22:53:00,75.0,74.0,29.96,East,99,0.0,3.0,98,0.00,,,0.62,,2013-07-14 02:53:00,
2013-07-13 23:01:00,75.0,74.0,29.97,ESE,112,1.0,4.0,98,0.00,,,0.62,,2013-07-14 03:01:00,
2013-07-13 23:11:00,75.0,74.0,29.97,ESE,112,1.0,4.0,98,0.00,,,0.62,,2013-07-14 03:11:00,
2013-07-13 23:22:00,76.0,75.0,29.96,ESE,102,2.0,6.0,97,0.00,,,0.62,,2013-07-14 03:22:00,
2013-07-13 23:32:00,76.0,75.0,29.96,SE,130,2.0,7.0,96,0.00,,,0.62,,2013-07-14 03:32:00,
2013-07-13 23:43:00,76.0,75.0,29.96,SE,130,2.0,7.0,96,0.00,,,0.62,,2013-07-14 03:43:00,
2013-07-13 23:53:00,76.0,74.0,29.96,East,97,2.0,10.0,94,0.00,,,0.62,,2013-07-14 03:53:00,